Vancouver, WA

4:16 AM PST on February 11, 2016 (GMT -0800)
Pearson

Weather History for KVUO - December, 2011

Change the Weather History Date:

Monday, December 5, 2011

  Actual Average Record
Temperature  
Mean Temperature 34 °F 42 °F  
Max Temperature 44 °F 48 °F 62 °F (1938)
Min Temperature 24 °F 36 °F 15 °F (2013)
Degree Days  
Heating Degree Days 31    
Month to date heating degree days 143  
Since 1 July heating degree days 1083  
Cooling Degree Days 0    
Month to date cooling degree days 0  
Year to date cooling degree days 339  
Moisture  
Dew Point 30 °F    
Average Humidity 85    
Maximum Humidity 100    
Minimum Humidity 70    
Precipitation  
Precipitation 0.01 in 0.20 in 1.90 in (1966)
Month to date precipitation 0.02 1.00  
Year to date precipitation 34.65 33.37  
Snow  
Snow 0.00 in - - ()
Month to date snowfall 0.0  
Snow Depth 0.00 in    
Sea Level Pressure  
Sea Level Pressure 30.48 in    
Wind  
Wind Speed 1 mph (WNW)    
Max Wind Speed 6 mph    
Max Gust Speed 8 mph    
Visibility 4 miles    
Events Fog    
T = Trace of Precipitation, MM = Missing Value Source: NWS Daily Summary

Daily Weather History Graph

Daily Weather History Graph

Search for Another Location

Airport or City:

Trip Planner

Search our weather history database for the weather conditions in past years. The results will help you decide how hot, cold, wet, or windy it might be!

Date:

Astronomy

Dec. 05, 2011 Rise Set
Actual Time 7:35 AM PST 4:27 PM PST
Civil Twilight 7:01 AM PST 5:01 PM PST
Nautical Twilight 6:23 AM PST 5:38 PM PST
Astronomical Twilight 5:48 AM PST 6:14 PM PST
Moon 1:36 PM PST (12/5) 2:52 AM PST (12/5)
Length of Visible Light 9h 59m
Length of Day
8h 52m
Waxing Gibbous, 80% of the Moon is Illuminated
Dec 5
Waxing Gibbous
Dec 10
Full
Dec 17
Last Quarter
Dec 24
New
Dec 31
First Quarter

Hourly Weather History & Observations

Time (PST) Temp. Windchill Dew Point Humidity Pressure Visibility Wind Dir Wind Speed Gust Speed Precip Events Conditions
12:53 AM 30.0 °F - 28.0 °F 92% 30.54 in 10.0 mi Calm Calm - N/A   Clear
2:53 AM 28.0 °F - 25.0 °F 88% 30.53 in 5.0 mi Calm Calm - N/A   Clear
3:53 AM 26.1 °F - 24.1 °F 92% 30.52 in 6.0 mi Calm Calm - N/A   Clear
4:53 AM 25.0 °F - 21.9 °F 88% 30.51 in 6.0 mi Calm Calm - N/A   Partly Cloudy
5:08 AM 24.8 °F - 23.0 °F 93% 30.51 in 6.0 mi Calm Calm - N/A   Mostly Cloudy
5:19 AM 30.2 °F - 26.6 °F 86% 30.51 in 1.8 mi Calm Calm - N/A   Overcast
5:22 AM 30.2 °F - 28.4 °F 93% 30.51 in 0.8 mi Calm Calm - N/A   Overcast
5:32 AM 30.2 °F - 30.2 °F 100% 30.51 in 0.2 mi Calm Calm - N/A Fog Light Freezing Fog
5:53 AM 30.9 °F 26.2 °F 30.0 °F 96% 30.51 in 0.2 mi NW 4.6 mph - N/A Fog Light Freezing Fog
6:53 AM 30.9 °F - 28.9 °F 92% 30.52 in 0.2 mi Calm Calm - N/A Fog Light Freezing Fog
8:53 AM 32.0 °F - 30.9 °F 96% 30.52 in 0.2 mi Calm Calm - 0.00 in Fog Fog
9:20 AM 32.0 °F - 30.2 °F 93% 30.51 in 0.5 mi Calm Calm - N/A Fog Fog
9:53 AM 32.0 °F - 30.9 °F 96% 30.52 in 0.8 mi Calm Calm - N/A   Overcast
10:07 AM 33.8 °F 30.8 °F 32.0 °F 93% 30.51 in 1.0 mi NW 3.5 mph - 0.01 in   Overcast
10:17 AM 33.8 °F - 32.0 °F 93% 30.51 in 0.8 mi Calm Calm - 0.01 in   Overcast
10:31 AM 33.8 °F 28.6 °F 32.0 °F 93% 30.51 in 1.0 mi NW 5.8 mph - 0.01 in   Overcast
10:43 AM 33.8 °F - 30.2 °F 87% 30.51 in 1.5 mi Calm Calm - 0.01 in   Overcast
10:47 AM 33.8 °F 30.8 °F 32.0 °F 93% 30.51 in 0.5 mi West 3.5 mph - 0.01 in   Overcast
10:53 AM 33.1 °F - 32.0 °F 96% 30.50 in 0.5 mi Calm Calm - 0.01 in   Overcast
11:25 AM 33.8 °F - 32.0 °F 93% 30.48 in 2.0 mi Calm Calm - N/A   Overcast
11:33 AM 33.8 °F 30.8 °F 32.0 °F 93% 30.48 in 5.0 mi NW 3.5 mph - N/A   Overcast
11:44 AM 33.8 °F - 33.8 °F 100% 30.47 in 2.0 mi Calm Calm - N/A   Overcast
11:53 AM 34.0 °F - 33.1 °F 96% 30.47 in 4.0 mi Calm Calm - N/A   Overcast
12:53 PM 36.0 °F 33.3 °F 34.0 °F 93% 30.45 in 8.0 mi WSW 3.5 mph - N/A   Clear
1:53 PM 41.0 °F 38.0 °F 35.1 °F 79% 30.42 in 10.0 mi West 4.6 mph - N/A   Clear
3:53 PM 42.1 °F - 34.0 °F 73% 30.42 in 10.0 mi Calm Calm - N/A   Clear
4:53 PM 37.9 °F - 32.0 °F 79% 30.42 in 10.0 mi Calm Calm - N/A   Clear
5:53 PM 33.1 °F - 28.9 °F 85% 30.42 in 10.0 mi Calm Calm - N/A   Clear
6:53 PM 33.1 °F - 28.9 °F 85% 30.42 in 10.0 mi Calm Calm - N/A   Clear
7:53 PM 34.0 °F - 30.9 °F 89% 30.43 in 10.0 mi Calm Calm - N/A   Clear
8:53 PM 30.0 °F - 27.0 °F 88% 30.43 in 8.0 mi Calm Calm - N/A   Clear
9:46 PM 32.0 °F 28.7 °F 30.2 °F 93% 30.43 in 3.0 mi WNW 3.5 mph - N/A   Scattered Clouds
9:48 PM 32.0 °F - 30.2 °F 93% 30.43 in 1.8 mi Calm Calm - N/A   Mostly Cloudy
9:53 PM 33.1 °F 30.0 °F 30.9 °F 92% 30.43 in 0.8 mi NW 3.5 mph - N/A   Mist
10:34 PM 33.8 °F - 30.2 °F 87% 30.42 in 0.2 mi Calm Calm - N/A Fog Fog
10:49 PM 33.8 °F - 30.2 °F 87% 30.42 in 0.5 mi Calm Calm - N/A Fog Fog
10:53 PM 33.1 °F 30.0 °F 30.9 °F 92% 30.43 in 0.5 mi NE 3.5 mph - N/A Fog Fog